Wetbulb
60.58 60.44 60.37 60.24 60.45 60.48 60.61 60.57 60.55 60.82 60.99 60.95 61.05 61.25 61.43 61.25 60.81 60.42 58.16 64.66 70.66 75.29 74.86 73.58 73.38 71.90 71.18 67.22 67.01 67.61 59.75 56.20 54.77 56.09 57.84 64.12 62.92 66.21 67.31 64.05 64.99 66.23 65.29 67.54 70.80
59.63 59.72 59.80 60.00 60.17 60.31 60.65 60.58 60.61 60.81 60.93 60.88 60.96 61.22 61.34 61.34 58.76 55.45 65.45 74.99 74.97 75.63 71.78 71.99 67.77 66.39 66.97 67.21 64.95 63.33 57.94 59.40 61.62 60.87 59.58 62.57 64.45 64.00 63.57 62.98 63.29 64.49 67.35 69.77 69.56
59.82 59.72 59.53 59.60 59.74 59.82 60.23 60.31 60.43 60.48 60.43 60.37 60.49 61.10 61.20 60.74 56.63 57.06 74.27 74.93 74.89 74.85 73.18 72.38 70.23 68.91 65.95 67.52 64.44 62.81 59.68 65.72 64.04 62.57 63.31 62.08 62.75 65.58 62.83 60.64 62.96 62.82 65.74 67.58 68.05
58.54 58.62 59.13 59.61 59.59 59.59 59.59 59.78 60.18 60.03 59.73 59.97 60.44 60.86 61.18 58.05 54.45 65.72 74.69 74.86 75.37 73.37 71.49 71.05 70.24 66.39 64.52 63.76 65.63 61.08 64.45 66.28 67.73 67.11 65.77 63.42 64.24 62.70 63.20 63.24 66.21 66.18 67.30 67.55 67.01
58.13 57.91 57.71 57.56 58.77 59.21 59.23 59.34 59.25 59.46 59.43 59.82 60.33 61.06 55.28 51.86 52.60 71.35 75.50 74.93 72.65 70.23 69.12 68.78 66.26 66.38 63.32 65.15 64.65 63.30 66.07 67.06 67.86 67.74 66.91 65.15 63.74 62.68 63.45 65.98 66.75 66.82 67.47 66.93 67.42
58.36 57.69 57.35 57.11 57.69 58.28 58.40 58.95 59.01 59.06 59.32 59.95 60.61 60.96 54.70 50.62 64.72 70.51 71.45 71.50 70.49 69.28 68.62 68.89 66.48 63.54 65.17 65.33 64.70 66.07 66.52 66.30 67.28 66.80 67.58 64.87 64.15 63.60 63.96 65.93 65.38 65.94 64.99 66.50 67.08
58.55 57.51 56.92 56.77 56.72 58.13 58.17 58.27 58.22 58.78 59.59 60.37 61.18 60.71 55.50 55.72 65.96 67.28 70.42 69.41 69.73 69.20 67.57 68.96 64.31 59.96 63.59 64.67 68.05 67.22 62.77 65.21 66.49 66.99 65.48 66.03 60.69 60.57 64.36 65.03 63.89 63.79 64.50 64.83 65.69
58.25 57.59 57.02 56.67 56.62 57.53 57.71 57.68 57.60 58.60 59.83 61.43 61.95 57.63 53.00 62.72 65.11 67.91 68.95 68.00 68.31 67.97 67.40 67.31 63.55 58.94 62.12 68.43 66.47 62.02 59.83 55.98 63.97 65.84 65.67 63.57 55.27 61.39 64.32 63.34 62.21 63.23 64.12 64.65 64.33
57.41 56.88 56.63 56.42 56.34 57.08 56.72 56.79 57.81 59.38 60.79 62.46 55.25 53.77 52.10 63.84 61.10 64.19 66.16 65.42 64.28 65.39 64.62 66.31 59.88 56.40 58.12 60.84 58.66 60.77 53.87 57.14 60.91 66.30 64.00 62.60 58.89 63.16 63.89 63.05 61.70 62.69 63.52 64.21 63.21
56.98 56.65 56.51 56.04 55.45 56.11 55.81 56.72 58.55 58.55 60.25 62.22 61.24 52.35 55.84 55.73 57.97 59.68 61.82 63.35 56.06 53.93 53.44 54.31 54.46 53.42 53.49 56.47 52.04 55.60 55.04 57.24 57.76 62.65 63.20 60.83 60.96 62.83 64.57 62.44 61.67 62.42 62.93 63.19 62.98
56.86 56.70 56.30 55.73 55.25 55.25 52.27 51.08 51.30 48.05 54.29 50.19 51.52 54.85 56.10 58.71 57.12 53.70 57.06 55.44 54.24 51.69 46.46 49.44 47.01 45.60 51.70 53.85 57.57 59.36 57.07 57.51 60.09 62.71 61.15 60.35 61.11 62.62 64.43 61.57 61.57 61.64 62.15 62.37 62.61
56.77 56.41 55.92 55.69 55.11 54.79 50.67 46.83 51.85 54.71 47.28 53.21 54.48 54.53 56.87 53.85 50.87 52.71 54.81 49.20 49.81 46.46 47.86 46.06 42.72 48.52 52.92 54.31 52.90 51.05 51.29 55.45 55.98 58.55 57.28 55.38 60.29 63.34 63.94 61.03 61.91 61.97 62.13 63.14 63.53
56.54 56.08 55.55 54.92 54.71 51.58 48.82 51.54 54.55 53.02 45.23 50.51 53.00 52.07 50.66 51.10 49.78 50.52 51.14 48.77 46.31 43.66 44.45 42.56 46.71 52.26 53.65 49.41 47.43 43.61 43.04 44.29 50.48 54.24 52.95 52.01 50.33 61.02 63.24 62.60 63.10 63.65 64.38 64.61 64.40
56.30 56.22 55.33 53.92 50.74 49.10 49.43 53.94 52.16 52.78 41.00 46.48 46.50 49.43 49.75 49.24 46.93 52.91 51.82 49.57 46.94 44.42 44.94 43.06 47.96 50.84 49.32 49.02 45.47 38.96 46.53 46.87 45.93 43.40 40.20 44.75 36.63 49.43 60.81 61.63 62.42 62.39 63.03 63.47 63.84
56.85 56.57 55.27 54.20 47.60 45.46 51.54 50.52 52.95 50.17 34.04 50.43 46.38 51.27 49.22 46.86 48.04 49.72 52.01 48.09 45.01 45.39 44.13 44.36 46.29 46.45 46.35 47.26 48.01 44.68 47.27 45.42 45.36 40.36 38.29 40.51 37.43 41.28 59.34 58.91 59.75 61.98 64.37 66.25 65.85
56.42 55.89 54.82 51.55 48.02 50.58 52.98 50.31 50.04 40.99 36.05 45.92 48.21 46.52 44.22 44.17 48.09 49.72 48.48 48.78 49.48 46.33 44.74 46.27 48.83 46.86 46.37 49.04 48.30 48.23 44.78 42.78 39.75 36.98 33.53 36.82 38.54 38.09 55.91 57.76 60.95 64.20 65.67 66.10 66.98
55.35 54.64 53.69 54.62 45.23 50.46 47.82 47.76 39.27 34.87 47.00 42.92 43.52 44.30 42.45 43.82 45.30 47.23 45.51 43.18 42.10 41.06 38.67 43.61 44.69 46.67 48.49 44.00 46.62 44.62 37.68 33.20 34.82 32.99 33.46 36.02 42.88 41.95 59.03 62.18 63.18 63.57 64.72 65.33 65.97
54.36 53.80 52.77 53.73 50.70 49.94 47.66 42.93 34.84 42.89 43.23 46.20 43.92 42.61 42.45 43.35 44.30 46.61 44.62 42.11 45.62 43.47 40.80 37.84 38.30 45.06 48.74 44.66 41.01 42.30 37.76 33.91 30.88 31.66 35.18 44.84 43.69 51.68 60.09 62.42 63.08 63.92 64.45 66.51 66.04
53.25 51.39 51.00 52.43 53.97 49.69 45.22 35.91 37.69 42.68 47.66 46.42 44.89 40.50 39.31 44.11 45.53 44.72 43.23 43.15 43.85 42.50 40.09 39.01 40.41 48.05 49.25 47.29 44.76 41.19 38.06 39.38 35.89 34.44 34.63 42.44 49.20 54.74 55.23 53.94 55.11 56.96 62.51 62.72 62.51
50.18 49.66 49.93 53.35 53.14 47.03 41.72 38.45 40.76 47.01 48.71 47.19 41.68 42.70 39.62 43.84 42.79 42.16 42.42 45.66 45.38 46.00 42.37 39.43 38.00 43.83 48.47 47.14 46.14 40.68 42.06 35.97 33.68 30.52 29.95 38.97 42.80 46.04 46.51 46.80 50.72 53.14 53.93 54.86 59.83
49.86 48.05 53.34 51.34 47.22 42.90 37.27 38.38 44.96 49.10 49.11 46.34 43.65 42.87 42.68 43.44 43.07 40.18 41.04 45.11 46.85 46.75 46.03 41.19 38.26 41.26 44.69 41.65 41.25 40.72 39.97 38.03 35.87 32.93 30.73 34.72 39.50 49.44 47.73 49.17 49.20 49.73 54.51 56.73 58.17
49.22 45.35 53.42 48.08 40.39 38.34 38.56 44.32 47.70 48.15 50.43 46.90 47.10 45.70 43.80 44.82 42.27 42.04 41.81 44.25 48.77 47.01 44.09 42.61 37.11 35.55 39.65 45.51 46.27 42.92 40.82 37.31 34.16 33.99 33.47 36.93 37.00 49.61 50.26 51.24 51.64 52.07 54.27 55.16 55.42
46.93 46.74 55.63 49.79 38.32 37.88 42.37 48.19 49.73 48.39 48.42 46.92 46.60 48.00 47.80 44.70 41.33 43.84 44.94 49.25 50.03 47.01 41.99 44.21 36.31 33.00 37.82 41.73 45.44 43.04 43.41 40.35 37.14 34.35 33.03 35.19 36.65 50.40 51.64 50.47 51.36 51.25 51.67 52.73 53.76
47.82 43.96 48.69 47.57 43.83 41.83 41.26 45.16 47.60 52.55 50.59 50.26 46.39 48.34 46.32 44.71 42.68 42.03 44.10 48.42 49.15 48.83 56.71 48.62 36.70 36.63 33.56 38.06 41.78 41.40 44.25 43.25 37.88 34.18 33.72 34.56 40.45 44.63 47.46 48.01 49.37 49.85 50.60 50.79 51.50
49.42 46.97 48.99 43.02 45.88 42.35 43.95 47.17 47.38 47.22 50.83 47.38 46.84 47.22 45.87 42.08 42.22 41.95 44.49 45.21 48.08 55.08 46.61 43.03 37.09 40.40 40.11 44.17 44.53 43.86 44.61 44.61 39.54 38.73 35.22 37.37 39.69 41.34 45.91 47.79 48.93 50.84 51.78 51.80 52.82
48.86 48.17 50.36 46.88 45.27 43.84 43.92 45.38 47.92 49.18 47.93 45.62 46.29 47.99 46.21 42.91 44.01 41.99 43.64 41.59 41.92 44.55 43.69 42.56 38.48 40.95 39.73 45.15 44.92 42.77 45.23 45.08 43.50 42.92 42.87 43.37 41.72 45.64 47.97 48.78 49.44 50.35 51.10 50.85 51.25
55.90 54.89 51.16 47.15 45.21 45.54 44.58 47.75 49.06 49.90 50.15 50.19 49.31 48.33 47.64 47.11 48.64 47.95 47.17 46.08 45.52 44.63 42.52 41.65 39.36 37.13 34.66 42.08 42.44 37.46 41.40 43.32 44.69 44.90 42.35 39.02 43.06 46.46 46.07 48.04 47.95 49.01 50.44 50.53 51.33
MSLP
1016.75 1016.27 1015.92 1015.42 1014.93 1014.59 1014.22 1014.07 1013.94 1013.73 1013.41 1013.12 1012.81 1012.28 1012.00 1011.55 1010.39 1010.10 1008.95 1007.29 1007.43 1007.89 1008.02 1008.55 1010.21 1010.45 1009.63 1010.36 1010.61 1011.16 1010.74 1009.33 1007.73 1007.24 1007.40 1007.30 1007.96 1009.23 1009.20 1010.06 1010.76 1010.81 1011.73 1013.02 1013.89
1016.86 1016.33 1015.96 1015.42 1014.87 1014.48 1014.13 1013.80 1013.60 1013.49 1013.21 1012.77 1012.57 1012.06 1011.79 1011.40 1010.53 1008.89 1006.69 1006.77 1007.28 1007.72 1007.72 1009.48 1008.97 1011.03 1011.02 1010.77 1011.15 1011.34 1010.48 1008.48 1006.51 1006.45 1006.57 1006.93 1007.46 1008.75 1009.67 1010.47 1011.02 1011.44 1012.29 1013.24 1013.98
1016.86 1016.38 1015.90 1015.39 1014.84 1014.45 1014.04 1013.62 1013.33 1013.19 1013.02 1012.58 1012.34 1011.88 1011.65 1011.34 1010.26 1007.36 1006.27 1006.88 1007.18 1007.71 1007.67 1008.95 1010.79 1011.07 1011.11 1011.39 1011.27 1011.11 1009.80 1007.40 1006.12 1005.87 1005.99 1006.59 1007.51 1008.34 1009.44 1010.71 1010.49 1011.04 1012.16 1013.06 1013.76
1016.83 1016.37 1015.94 1015.38 1014.87 1014.35 1013.92 1013.43 1013.15 1012.94 1012.80 1012.42 1012.07 1011.77 1011.35 1011.09 1009.36 1006.64 1006.33 1006.96 1007.28 1007.76 1007.69 1007.97 1009.02 1010.40 1010.40 1010.91 1011.21 1010.80 1008.70 1007.27 1006.37 1006.08 1006.23 1006.64 1007.47 1008.78 1008.83 1009.98 1010.46 1011.10 1011.93 1012.72 1013.47
1016.68 1016.29 1015.90 1015.42 1014.97 1014.28 1013.73 1013.21 1012.93 1012.64 1012.47 1012.22 1011.95 1011.60 1011.00 1010.25 1008.00 1006.33 1006.50 1007.08 1007.37 1007.69 1007.70 1007.59 1007.79 1007.79 1008.30 1009.68 1009.90 1009.93 1007.24 1006.74 1006.19 1006.31 1006.62 1006.91 1007.57 1008.33 1009.30 1009.99 1010.77 1011.18 1012.16 1012.76 1012.94
1016.50 1016.13 1015.71 1015.30 1014.86 1014.23 1013.53 1012.94 1012.60 1012.44 1012.17 1011.93 1011.81 1011.66 1011.00 1009.07 1006.31 1006.23 1006.49 1007.06 1007.10 1007.32 1006.99 1007.15 1006.90 1006.32 1006.98 1008.04 1008.23 1007.85 1007.14 1007.08 1007.05 1006.90 1007.32 1007.75 1008.50 1008.61 1009.95 1010.24 1010.84 1011.19 1011.83 1012.46 1012.81
1016.42 1015.96 1015.46 1015.08 1014.73 1013.94 1013.26 1012.69 1012.24 1011.98 1011.86 1011.68 1011.61 1011.41 1010.45 1007.51 1006.06 1006.22 1006.42 1006.42 1006.17 1006.21 1006.43 1005.84 1005.89 1006.08 1006.51 1007.64 1007.15 1007.03 1007.43 1007.76 1007.75 1007.50 1008.00 1008.21 1009.31 1009.43 1009.84 1010.33 1010.95 1011.42 1011.70 1012.00 1012.42
1016.37 1015.83 1015.22 1014.76 1014.40 1013.62 1012.90 1012.22 1011.74 1011.60 1011.44 1011.35 1011.43 1011.09 1009.11 1006.17 1005.93 1006.63 1006.43 1006.18 1005.75 1005.70 1005.91 1005.28 1005.19 1005.83 1006.02 1006.56 1007.18 1007.33 1007.96 1008.37 1008.04 1008.09 1008.18 1008.31 1009.57 1009.83 1009.92 1010.22 1010.83 1011.27 1011.59 1011.93 1012.20
1016.35 1015.69 1015.02 1014.56 1014.05 1013.28 1012.41 1011.42 1010.97 1010.90 1011.13 1011.12 1011.19 1010.61 1008.10 1005.96 1006.49 1005.75 1006.01 1005.99 1005.62 1005.34 1005.00 1004.95 1004.88 1005.65 1006.19 1007.00 1007.99 1008.03 1008.34 1008.40 1008.15 1008.01 1008.27 1008.76 1009.60 1009.83 1009.96 1010.13 1010.65 1011.11 1011.31 1011.53 1012.00
1016.22 1015.63 1014.88 1014.24 1013.72 1012.97 1011.87 1010.72 1010.46 1010.58 1011.05 1010.86 1010.30 1009.95 1007.45 1006.03 1005.41 1005.29 1005.39 1005.69 1005.48 1005.32 1005.09 1005.07 1005.46 1006.02 1006.82 1006.94 1007.37 1007.48 1008.08 1007.89 1007.79 1007.71 1008.26 1008.72 1008.58 1009.01 1009.45 1009.83 1010.08 1010.63 1011.09 1011.41 1011.71
1016.19 1015.46 1014.68 1013.87 1013.38 1012.95 1011.59 1010.41 1010.69 1010.57 1010.24 1009.24 1008.50 1007.79 1006.60 1005.42 1005.17 1005.29 1005.11 1005.18 1005.45 1005.84 1006.31 1006.01 1006.58 1006.52 1005.91 1005.98 1005.70 1006.38 1006.84 1006.94 1007.00 1007.02 1007.84 1008.13 1008.19 1008.35 1008.82 1009.54 1009.82 1010.33 1010.64 1011.07 1011.51
1016.01 1015.29 1014.51 1013.64 1012.93 1012.83 1012.59 1011.40 1009.65 1009.17 1008.99 1007.68 1007.11 1006.88 1006.02 1005.13 1005.23 1005.11 1005.13 1005.79 1006.13 1006.67 1006.84 1007.17 1006.95 1005.77 1005.44 1005.13 1005.27 1005.61 1006.15 1006.74 1006.70 1006.80 1007.80 1007.89 1008.07 1007.98 1008.20 1008.36 1008.59 1009.30 1010.21 1010.65 1011.20
1015.98 1015.19 1014.36 1013.29 1012.37 1012.27 1011.77 1010.05 1008.37 1009.00 1008.96 1006.86 1006.02 1005.66 1005.25 1004.99 1005.22 1005.22 1005.37 1005.70 1006.28 1006.86 1007.02 1007.37 1006.21 1005.57 1005.01 1005.07 1005.41 1006.35 1006.73 1006.88 1006.90 1007.12 1007.53 1007.63 1007.94 1007.93 1007.91 1008.14 1008.75 1009.29 1010.08 1010.62 1011.14
1015.77 1015.18 1014.39 1013.07 1012.19 1012.23 1010.79 1008.52 1008.37 1008.61 1009.08 1007.03 1005.49 1004.65 1004.68 1004.90 1005.10 1004.64 1005.07 1005.56 1006.08 1006.53 1006.72 1006.79 1005.63 1005.46 1005.22 1005.47 1005.93 1006.76 1006.80 1007.11 1007.41 1007.99 1008.24 1008.01 1008.86 1008.12 1007.60 1007.84 1008.60 1009.73 1010.67 1011.53 1011.70
1015.23 1014.84 1014.40 1014.21 1013.55 1012.09 1009.62 1008.78 1007.99 1008.41 1008.91 1005.93 1005.08 1003.82 1004.45 1005.21 1005.15 1004.97 1004.74 1005.22 1005.95 1006.53 1007.12 1006.75 1005.95 1005.66 1005.70 1005.95 1006.07 1007.07 1006.92 1007.29 1008.07 1009.02 1009.35 1009.09 1009.17 1007.63 1007.45 1008.49 1009.22 1010.38 1011.39 1012.22 1012.60
1014.66 1014.44 1014.17 1013.81 1013.53 1010.46 1009.54 1008.62 1008.34 1009.45 1007.88 1005.83 1004.63 1004.52 1005.22 1005.35 1005.37 1005.08 1005.12 1005.42 1005.90 1006.62 1006.91 1006.65 1005.76 1005.85 1005.90 1005.93 1006.23 1006.74 1007.57 1008.54 1009.26 1010.20 1011.20 1009.47 1009.65 1009.16 1008.25 1008.32 1009.87 1010.80 1011.53 1012.45 1012.93
1014.05 1013.40 1013.93 1013.24 1011.26 1009.76 1009.31 1009.50 1010.43 1009.96 1007.31 1006.09 1005.42 1005.15 1005.44 1005.73 1005.89 1005.61 1005.79 1006.27 1006.86 1007.43 1007.81 1007.12 1006.66 1006.15 1006.02 1006.43 1006.85 1007.53 1009.43 1010.64 1011.75 1012.31 1011.85 1010.43 1010.05 1009.95 1008.67 1008.93 1009.77 1011.18 1012.12 1012.43 1013.01
1013.38 1012.05 1011.68 1011.17 1010.25 1010.16 1010.34 1010.87 1010.79 1008.81 1007.49 1006.07 1005.74 1005.75 1005.97 1005.93 1006.11 1005.96 1006.38 1007.20 1007.36 1007.80 1008.51 1008.33 1008.08 1006.92 1006.53 1006.92 1007.54 1008.54 1009.99 1011.55 1012.63 1013.38 1012.36 1011.08 1011.77 1011.63 1010.59 1010.34 1010.57 1010.99 1012.06 1012.69 1013.11
1012.74 1011.54 1011.22 1009.02 1009.69 1010.52 1011.23 1011.73 1010.18 1008.51 1007.15 1006.76 1006.26 1006.38 1006.30 1006.15 1006.23 1006.41 1006.99 1007.71 1007.89 1007.94 1008.59 1008.98 1008.65 1007.53 1007.11 1007.14 1007.83 1008.92 1010.12 1011.08 1012.39 1013.40 1013.57 1013.60 1013.54 1012.20 1011.80 1011.72 1011.84 1012.11 1012.68 1013.30 1013.50
1013.44 1012.21 1010.15 1007.97 1009.06 1010.08 1011.42 1011.40 1009.70 1008.04 1007.29 1006.95 1007.16 1006.35 1006.33 1006.31 1006.45 1006.68 1007.33 1007.83 1008.24 1008.26 1008.30 1009.62 1009.64 1008.92 1007.92 1007.84 1008.20 1008.87 1010.00 1011.59 1013.15 1014.41 1015.14 1015.21 1014.60 1014.76 1014.36 1013.80 1013.55 1013.64 1013.83 1013.97 1013.83
1013.29 1012.07 1008.39 1007.84 1008.86 1010.85 1011.80 1010.91 1009.10 1007.72 1007.54 1007.18 1006.61 1006.95 1005.70 1006.06 1006.39 1007.25 1008.30 1008.49 1008.45 1009.15 1008.94 1010.00 1010.74 1010.70 1009.58 1009.45 1009.32 1009.83 1010.81 1012.29 1013.82 1014.90 1015.58 1016.31 1016.91 1016.17 1015.62 1014.94 1014.62 1014.62 1014.57 1014.62 1014.59
1014.48 1012.49 1008.50 1007.93 1010.15 1011.22 1011.44 1010.21 1008.86 1007.87 1007.15 1007.00 1006.30 1005.60 1005.42 1005.99 1007.22 1008.03 1008.98 1008.87 1008.65 1009.03 1010.38 1011.18 1012.35 1012.51 1011.63 1010.67 1010.01 1010.32 1011.36 1012.60 1014.52 1015.89 1016.43 1016.76 1017.72 1016.97 1016.23 1015.86 1015.62 1015.87 1015.95 1016.08 1016.09
1015.93 1013.29 1008.71 1008.81 1010.49 1011.35 1010.68 1009.79 1008.77 1007.84 1006.92 1006.45 1006.23 1004.71 1004.95 1006.47 1008.10 1008.87 1009.46 1009.76 1009.28 1010.12 1011.20 1011.74 1013.51 1013.92 1012.99 1012.22 1011.46 1011.86 1012.41 1012.85 1014.19 1015.28 1016.70 1017.60 1018.73 1017.83 1017.04 1016.80 1016.73 1016.67 1016.61 1016.63 1016.77
1016.39 1014.31 1011.41 1010.28 1010.89 1011.03 1010.69 1009.86 1008.60 1007.31 1006.38 1005.58 1004.98 1004.58 1005.47 1007.01 1007.81 1009.36 1010.00 1010.38 1010.12 1010.69 1011.39 1012.02 1014.19 1014.90 1015.02 1014.39 1013.66 1013.26 1013.09 1013.36 1014.42 1015.73 1017.57 1018.02 1018.76 1018.82 1017.98 1017.69 1017.42 1017.40 1017.25 1017.19 1017.28
1016.06 1015.00 1013.92 1013.06 1012.12 1011.43 1010.65 1009.78 1008.62 1007.59 1005.99 1004.95 1005.00 1005.21 1005.97 1007.72 1008.78 1009.75 1010.36 1011.08 1011.48 1011.65 1012.07 1013.17 1014.91 1015.09 1015.24 1014.63 1014.05 1013.66 1013.45 1013.61 1014.38 1015.29 1016.91 1018.39 1018.58 1018.74 1018.69 1018.62 1018.34 1018.11 1017.96 1017.89 1017.97
1016.04 1015.56 1014.57 1013.76 1012.81 1011.74 1010.94 1010.03 1008.83 1007.76 1006.44 1005.77 1006.08 1006.40 1006.45 1007.41 1007.92 1009.68 1010.23 1011.15 1011.85 1012.30 1012.91 1014.21 1015.52 1015.65 1015.90 1015.14 1014.80 1014.42 1013.96 1013.79 1014.36 1015.96 1017.66 1018.49 1018.86 1018.90 1018.89 1018.64 1018.89 1019.26 1019.21 1019.22 1019.14
1016.30 1015.38 1015.17 1014.28 1013.57 1012.65 1012.20 1011.06 1009.47 1008.07 1007.50 1006.72 1006.59 1006.86 1007.56 1008.41 1008.31 1009.15 1009.85 1010.69 1011.60 1012.72 1014.18 1015.16 1016.35 1017.20 1017.14 1016.06 1015.49 1015.30 1015.05 1015.16 1016.00 1016.60 1017.75 1018.63 1019.31 1019.54 1019.84 1019.87 1020.08 1020.32 1020.25 1020.11 1019.79
Wind_Speed
16 16 17 17 17 16 16 15 14 13 13 13 13 13 12 13 18 3 4 7 4 13 5 4 11 16 12 9 8 2 3 1 5 6 6 18 14 11 12 20 13 2 18 21 21
17 17 17 17 17 16 16 15 14 13 12 13 12 13 12 13 4 6 7 7 7 14 6 10 30 11 3 3 2 2 2 4 6 10 9 16 21 14 12 19 13 19 18 23 22
17 17 17 17 18 17 16 16 15 14 13 13 13 13 12 10 3 6 6 6 9 8 4 5 26 14 5 1 1 0 4 4 10 10 14 14 20 16 21 16 23 22 26 24 23
19 19 18 18 18 18 17 17 16 15 14 13 12 12 13 2 2 4 7 4 8 1 4 2 5 13 7 7 3 5 12 5 9 8 6 10 14 17 18 13 21 20 22 22 22
20 19 19 19 19 18 18 18 16 15 14 11 10 9 2 2 8 5 7 4 4 3 5 3 4 7 5 10 9 7 2 9 7 13 12 13 9 11 14 20 18 18 22 19 20
18 20 19 19 19 18 19 18 15 13 12 9 7 6 1 2 2 10 7 4 5 5 6 5 7 6 7 7 8 6 8 7 5 7 8 11 6 11 16 19 17 17 18 18 17
19 21 20 20 19 20 19 18 16 14 10 7 5 3 0 9 4 9 9 6 5 7 5 9 6 7 4 6 3 8 5 4 1 2 5 8 7 12 19 17 15 10 13 12 14
20 21 21 21 20 20 21 20 18 14 9 6 3 2 6 5 8 6 6 6 8 8 8 14 6 1 2 7 6 6 6 2 4 3 1 6 4 13 19 19 15 11 12 10 7
21 22 22 22 21 20 21 22 18 9 6 4 1 1 8 5 7 10 6 6 5 9 9 13 2 5 2 6 3 4 1 4 2 7 3 3 6 12 15 18 17 14 13 11 8
22 22 24 23 22 20 24 15 2 4 3 5 4 3 3 4 3 4 7 9 3 6 7 5 4 2 2 3 6 6 5 5 6 9 7 4 8 18 16 18 19 17 15 11 10
23 24 24 25 22 18 13 4 6 5 0 7 6 5 5 4 3 3 4 2 4 5 3 5 5 6 13 11 12 9 6 7 8 8 7 12 7 19 18 15 17 16 15 13 12
24 24 25 26 22 17 2 1 7 4 8 8 14 6 10 4 3 4 4 2 1 6 5 7 5 13 8 1 6 10 3 5 2 5 7 7 11 17 20 21 21 19 16 15 13
23 25 26 28 27 1 2 7 6 7 2 9 7 5 6 6 5 7 8 4 4 3 5 6 11 8 5 6 8 5 5 4 5 3 4 3 3 16 17 19 16 16 13 10 15
25 25 25 32 3 5 6 4 8 6 6 9 3 6 2 4 3 6 9 5 1 8 4 5 7 5 4 4 5 5 4 3 5 5 4 5 5 8 18 19 18 11 7 1 7
23 22 23 10 4 3 5 10 12 6 2 5 5 2 7 8 4 3 1 4 5 6 6 7 5 6 8 1 2 4 2 4 3 3 4 1 3 8 15 12 5 14 13 13 12
24 19 19 3 2 9 11 11 6 8 6 4 6 7 5 1 1 5 2 3 1 3 2 8 1 4 2 2 3 2 4 8 6 4 4 5 7 6 9 9 10 14 18 16 13
27 24 9 4 6 3 6 6 7 4 5 5 6 5 5 7 5 5 5 2 3 3 4 5 2 1 4 4 9 10 8 5 5 5 7 3 5 6 7 16 21 19 12 15 12
30 28 5 7 4 3 5 7 4 5 7 2 4 5 8 5 5 6 4 2 5 3 4 4 4 1 1 3 3 3 7 7 2 2 5 6 6 5 4 11 7 9 12 13 12
26 3 2 6 8 3 7 3 9 6 2 6 8 6 3 4 6 3 4 4 1 1 7 4 1 3 4 2 5 3 3 5 4 2 5 3 5 15 13 15 14 15 12 7 6
5 5 5 3 8 6 6 7 6 4 7 7 0 6 8 7 5 5 3 2 3 3 3 1 5 4 2 5 4 5 2 5 5 2 4 3 4 7 5 10 16 17 15 9 12
3 5 6 8 6 7 3 7 6 6 7 5 9 10 7 9 9 4 3 5 3 3 9 3 5 6 5 3 5 5 4 6 6 4 5 4 4 2 2 1 7 9 11 13 14
4 4 3 3 5 1 2 4 8 18 14 8 8 10 5 7 6 7 5 3 3 2 4 2 6 1 5 9 2 4 3 5 7 4 5 7 1 6 9 11 13 14 14 12 10
3 5 4 7 2 3 5 4 3 5 7 5 6 1 6 6 9 7 5 6 6 6 2 3 4 4 10 10 9 6 5 4 5 4 1 7 3 3 9 11 9 11 8 7 9
2 5 6 6 2 5 2 5 6 7 13 9 6 7 8 8 5 6 5 5 6 5 6 8 4 7 6 4 4 4 6 4 6 4 4 3 8 2 6 7 7 7 7 7 7
1 3 2 4 6 2 1 2 9 5 8 4 8 6 8 7 7 7 6 6 6 2 5 6 4 4 4 2 4 4 7 7 1 5 6 7 8 2 4 5 4 7 11 13 13
3 4 5 4 6 4 5 4 6 10 4 4 11 13 12 5 8 10 9 4 4 4 5 5 2 4 7 7 7 3 7 8 5 13 17 12 7 1 5 7 11 9 9 9 8
4 4 3 5 6 5 3 8 10 4 17 13 15 16 19 6 10 11 8 6 10 8 3 4 4 4 4 6 6 5 7 9 10 10 8 5 4 2 5 6 5 7 7 7 9
Wind_Direction
350 349 343 338 336 333 329 329 326 325 324 321 321 322 324 323 307 182 252 218 113 153 123 107 78 20 7 19 32 8 53 303 141 110 136 130 124 144 123 135 157 223 141 152 148
346 346 341 337 334 332 326 324 323 323 323 320 323 318 325 331 294 254 245 157 105 144 188 104 85 326 335 330 36 347 86 249 174 131 136 131 136 129 134 148 121 120 127 146 142
344 342 338 335 333 330 325 322 322 323 324 319 322 315 323 322 305 253 184 174 160 184 243 80 136 167 238 233 253 210 214 282 121 139 149 144 139 139 142 148 153 147 148 150 153
344 343 337 333 331 327 325 321 321 320 321 319 319 317 316 261 176 259 208 177 147 203 293 299 180 171 152 144 277 259 235 266 60 89 135 153 122 155 152 165 157 149 151 150 164
345 341 337 334 329 326 322 318 317 317 318 316 318 324 358 31 252 186 189 144 153 173 217 262 279 214 187 137 196 237 172 73 66 73 67 83 125 134 132 144 155 153 149 164 168
343 338 336 333 326 325 320 314 312 312 311 311 311 314 60 290 153 154 165 158 228 191 242 206 247 271 100 151 205 178 82 84 41 84 82 91 117 111 139 149 153 158 154 172 173
343 341 337 332 327 324 318 310 308 305 299 292 292 266 118 236 164 164 171 207 218 197 238 248 283 56 12 131 282 97 64 34 255 352 95 102 77 140 148 150 155 152 170 173 177
340 337 337 332 328 321 314 305 301 293 282 267 228 253 251 263 127 175 202 278 269 258 236 263 274 137 237 107 18 62 74 91 250 122 341 93 167 156 155 152 163 170 183 187 197
344 339 335 330 329 323 313 303 296 272 217 133 151 193 273 294 180 223 173 226 255 266 270 271 359 161 38 116 9 325 150 214 175 193 145 115 147 172 169 163 168 182 190 192 183
343 341 335 329 330 326 315 293 254 124 182 201 254 344 275 221 217 228 192 217 269 334 354 39 49 35 108 156 215 207 206 188 208 184 189 172 212 170 179 176 177 183 193 196 174
341 340 336 330 329 332 341 21 22 11 100 197 205 218 287 227 156 217 249 42 2 28 322 335 41 261 267 221 231 178 231 182 208 191 146 200 195 180 180 186 183 189 190 186 177
341 339 336 329 320 323 261 114 212 153 305 248 238 258 242 203 141 269 90 141 109 244 353 360 290 265 249 189 69 31 92 187 156 150 161 191 217 191 181 194 189 185 187 182 167
340 338 334 326 317 26 211 240 282 54 321 294 211 207 210 134 194 238 137 170 217 256 247 174 249 308 72 43 48 28 62 2 169 158 253 56 322 181 201 195 192 191 182 180 169
335 335 336 328 11 326 274 308 321 148 61 276 219 255 151 97 295 207 186 156 301 233 260 236 277 194 56 53 99 50 289 85 52 71 213 98 264 211 199 197 188 166 134 154 172
323 327 332 321 287 285 263 329 311 65 31 248 216 180 155 141 169 320 177 63 235 259 59 269 28 52 63 45 90 182 285 322 140 89 342 162 73 272 185 185 136 126 111 96 86
320 326 334 95 234 249 314 305 47 49 249 232 153 167 109 238 263 167 138 82 211 257 160 216 182 98 140 314 355 154 43 30 40 76 11 259 132 290 183 150 120 117 119 107 82
320 315 307 282 234 334 330 35 48 146 294 210 179 153 155 200 175 180 172 202 163 52 351 344 6 39 88 31 7 62 49 356 15 10 226 50 58 261 118 123 132 125 125 125 145
321 312 205 209 250 346 43 55 178 233 264 280 152 132 166 167 223 181 147 64 20 112 99 113 359 349 23 122 182 92 133 144 174 212 269 357 16 344 66 104 104 100 126 145 178
320 326 252 249 179 117 76 87 208 209 273 20 356 133 240 189 155 156 121 130 113 135 112 89 91 14 81 55 108 313 40 187 121 350 66 6 13 31 43 58 72 93 109 125 148
320 332 267 152 145 76 80 225 235 227 7 37 308 223 166 188 111 134 106 140 105 24 118 136 80 312 254 50 2 112 198 37 9 55 72 322 56 125 43 92 93 92 94 84 86
355 7 267 122 83 51 156 240 300 318 2 342 306 279 187 181 152 130 71 359 61 54 75 90 95 286 18 6 193 10 16 52 109 97 137 99 351 334 270 219 113 103 104 112 112
352 5 274 42 62 56 209 251 303 308 312 277 283 221 160 183 58 81 87 112 344 76 64 338 124 131 244 311 89 112 118 108 108 305 44 103 321 358 71 56 70 62 64 60 55
345 273 315 98 137 278 295 291 266 293 287 270 274 69 74 107 95 100 77 326 82 74 107 342 21 32 351 353 6 51 1 62 110 86 162 110 167 24 67 59 58 70 54 49 51
18 350 322 29 94 138 346 307 309 285 284 248 192 79 82 59 69 126 123 48 34 90 100 78 87 133 163 212 231 341 339 50 97 82 117 83 154 209 48 59 46 52 50 48 61
101 277 188 312 329 316 92 288 297 303 228 311 17 116 131 109 82 121 105 105 9 131 79 95 110 118 175 329 2 307 318 318 345 174 118 199 118 135 89 79 50 30 24 34 26
50 31 344 283 309 3 354 324 315 332 298 30 84 63 61 106 143 165 127 119 160 9 62 21 3 51 355 9 24 335 323 316 359 88 103 117 99 50 42 44 42 42 35 31 12
320 317 101 293 333 30 348 307 346 217 22 46 96 81 64 25 100 122 118 121 144 115 97 82 105 73 302 344 1 24 314 80 64 43 139 106 139 128 60 49 70 45 25 359 345